Observations for Trim Patrick St
| Time | AQI | Temp °C | Hum % | Pres Pa | CO μg/m³ | H₂S μg/m³ | NO μg/m³ | NO₂ μg/m³ | O₃ μg/m³ | SO₂ μg/m³ | PM1 μg/m³ | PM2.5 μg/m³ | PM10 μg/m³ |
|---|---|---|---|---|---|---|---|---|---|---|---|---|---|
| Monday 3 August 2026 | |||||||||||||
| 23:36 | 3 | 16.9 | 85 | 38,460 | 0.16 | 2.38 | 1.2 | 25 | 18.15 | 0 | 10.57 | 14.55 | 16 |
| 23:35 | 3 | 16.9 | 85 | 38,460 | 0.17 | 2.85 | 1.14 | 28.55 | 13.25 | 0 | 12.29 | 16.62 | 18.28 |
| 23:34 | 3 | 16.9 | 85 | 38,460 | 0.18 | 4.11 | 1.06 | 24.51 | 16.58 | 0 | 9.71 | 15.23 | 16.75 |
| 23:33 | 3 | 16.8 | 85 | 38,460 | 0.18 | 6.41 | 1.23 | 36.22 | 14.89 | 0 | 11.43 | 15.24 | 16.76 |
| 23:32 | 3 | 16.8 | 85 | 38,460 | 0.19 | 3.59 | 1.27 | 28.61 | 15.09 | 0 | 9.71 | 15.93 | 17.52 |
| 23:31 | 3 | 16.9 | 85 | 38,460 | 0.16 | 3.69 | 1.37 | 30.85 | 11.14 | 0 | 8.86 | 13.86 | 15.24 |
| 23:30 | 3 | 16.9 | 85 | 38,460 | 0.15 | 3.14 | 1.27 | 21.61 | 15.48 | 0 | 10.57 | 13.86 | 15.24 |
| 23:29 | 3 | 16.9 | 85 | 38,460 | 0.17 | 9.1 | 1.34 | 33.69 | 22.86 | 0 | 8 | 13.87 | 15.25 |
| 23:28 | 3 | 16.8 | 85 | 38,460 | 0.17 | 8.6 | 1.2 | 52.01 | 6.84 | 0 | 8 | 11.12 | 12.23 |
| 23:27 | 3 | 16.8 | 85 | 38,460 | 0.16 | 4.37 | 1.19 | 25.18 | 18.8 | 0 | 9.71 | 13.18 | 14.5 |
| 23:26 | 3 | 16.8 | 85 | 38,460 | 0.15 | 6.04 | 0.99 | 38.87 | 15.65 | 0 | 8.86 | 12.5 | 13.75 |
| 23:25 | 3 | 16.8 | 85 | 38,460 | 0.17 | 5.08 | 1.03 | 31.74 | 15.69 | 0 | 8 | 12.49 | 13.74 |
| 23:24 | 3 | 16.8 | 85 | 38,460 | 0.16 | 5.75 | 0.76 | 26.68 | 28.79 | 0 | 9.71 | 13.18 | 14.5 |
| 23:23 | 3 | 16.8 | 85 | 38,460 | 0.16 | 6.41 | 1.02 | 33.14 | 17.9 | 0 | 7.14 | 9.74 | 10.71 |
| 23:22 | 3 | 16.8 | 85 | 38,460 | 0.15 | 5.55 | 1.09 | 32.57 | 20.31 | 0 | 6.29 | 10.43 | 11.47 |
| 23:21 | 3 | 16.8 | 85 | 38,460 | 0.15 | 7.45 | 1.17 | 37.85 | 19.9 | 0 | 6.29 | 9.74 | 10.71 |
| 23:20 | 3 | 16.9 | 85 | 38,460 | 0.15 | 8.34 | 1.17 | 34.28 | 22.32 | 0 | 7.14 | 9.74 | 10.71 |
| 23:19 | 3 | 16.8 | 85 | 38,460 | 0.16 | 7.92 | 1.47 | 35.52 | 21.16 | 0 | 5.43 | 9.06 | 9.96 |
| 23:18 | 3 | 16.8 | 85 | 38,460 | 0.15 | 8.18 | 1.25 | 47.02 | 13.21 | 0 | 3.71 | 7.68 | 8.45 |
| 23:17 | 3 | 16.8 | 85 | 38,460 | 0.15 | 7.92 | 1.05 | 33.69 | 23.18 | 0 | 2.86 | 5.61 | 6.17 |